SCP
0 0 0 0 0 0 0 0 0 0 0 0 0 0 0 1 1 1 1 1 2 2 2 3 3 3 3 3 4 3 3 3 2 2 2 1 1 1 1 1 1 1 1 1
0 0 0 0 0 0 0 0 0 0 0 0 0 0 0 1 1 1 1 1 1 2 2 3 3 3 3 4 4 4 3 3 3 2 2 1 1 1 1 1 1 1 1 1
0 0 0 0 0 0 0 0 0 0 0 0 0 0 1 1 1 1 1 1 1 2 2 2 2 3 4 5 5 4 4 4 4 3 2 2 1 1 1 1 1 1 1 1
0 0 0 0 0 0 0 0 0 0 0 0 0 0 0 1 1 1 1 1 1 1 2 2 2 3 4 5 5 5 5 5 4 3 2 2 2 1 1 1 1 1 1 1
0 0 0 0 0 0 0 0 0 0 0 0 0 0 0 1 1 1 1 1 1 1 2 2 2 3 4 4 5 5 5 4 4 3 2 2 2 1 1 1 1 1 1 1
0 0 0 0 0 0 0 0 0 0 0 0 0 0 0 0 1 1 1 1 1 2 2 2 3 3 4 4 4 4 5 4 3 2 2 1 1 1 1 1 1 1 2 2
0 0 0 0 0 0 0 0 0 0 0 0 0 0 0 1 1 1 1 1 2 2 2 2 3 4 4 3 3 4 5 4 2 2 2 2 2 2 2 2 2 2 2 2
0 0 0 0 0 0 0 0 0 0 0 0 0 0 0 1 1 1 1 1 2 2 2 2 2 3 3 3 3 3 4 3 2 2 2 2 2 2 2 1 1 1 1 1
0 0 0 0 0 0 0 0 0 0 0 0 0 0 0 1 1 1 1 2 2 2 2 2 2 2 2 2 2 3 3 3 3 2 2 2 2 1 1 1 1 1 1 1
0 0 0 0 0 0 0 0 0 0 0 0 0 0 0 1 1 1 1 2 2 2 2 2 2 2 3 3 3 3 3 3 3 2 2 2 1 1 1 1 1 1 1 1
0 0 0 0 0 0 0 0 0 0 0 0 0 0 1 1 1 1 2 2 2 2 2 3 3 3 4 4 3 3 3 3 3 3 2 2 1 1 1 1 1 1 1 1
0 0 0 0 0 0 0 0 0 0 0 0 0 0 1 1 1 2 2 2 2 3 3 3 4 4 5 4 4 3 3 3 3 3 3 2 1 1 1 1 1 1 1 2
0 0 0 0 0 0 0 0 0 0 0 0 0 1 1 2 2 2 2 2 2 3 3 3 4 4 5 4 4 3 3 4 3 3 3 2 2 2 2 1 1 1 1 1
0 0 0 0 0 0 0 0 0 0 0 0 0 0 1 2 2 2 2 2 2 3 4 4 4 4 4 4 3 3 4 4 3 4 3 3 3 3 2 2 2 2 2 2
0 0 0 0 0 0 0 0 0 0 0 0 0 0 1 2 2 2 2 2 3 3 4 4 5 5 4 4 4 3 3 3 3 4 4 3 3 3 3 3 3 3 2 2
0 0 0 0 0 0 0 0 0 0 0 0 0 0 1 2 2 2 2 2 3 3 4 5 5 6 5 5 4 4 3 3 3 4 3 3 3 3 3 3 3 2 2 2
0 0 0 0 0 0 0 0 0 0 0 0 0 0 1 1 2 2 3 2 2 3 3 4 6 6 5 5 4 4 4 3 3 3 3 2 2 2 2 2 2 2 2 2
0 0 0 0 0 0 0 0 0 0 0 0 1 1 1 1 2 2 2 2 2 2 3 4 5 6 6 5 5 4 4 4 4 3 3 2 2 2 2 2 2 3 3 3
1 1 0 0 0 0 0 0 0 0 1 1 1 1 1 2 2 2 2 2 2 3 3 4 5 5 5 5 5 4 4 4 3 3 2 2 2 2 2 2 3 3 3 3
1 1 0 0 0 0 0 1 1 1 1 1 1 1 2 2 2 2 2 2 3 3 3 4 4 5 5 5 4 4 3 3 3 2 1 1 1 2 2 2 3 3 4 4
1 1 0 0 0 0 1 1 1 1 1 1 2 2 2 2 2 3 3 4 3 3 4 4 4 4 4 4 4 3 3 3 2 1 1 1 1 1 2 2 3 3 3 3
1 1 1 0 0 1 1 1 1 2 2 2 2 2 2 2 3 3 4 4 4 4 4 4 4 4 4 3 3 3 3 3 2 1 0 0 0 1 1 1 2 2 2 2
1 1 1 1 1 1 1 2 2 3 3 3 3 3 3 3 3 3 3 3 3 3 4 4 3 3 3 2 2 2 2 2 2 1 1 0 0 0 0 1 1 1 1 1
1 1 1 1 1 2 2 2 2 3 3 3 2 3 3 3 3 3 3 3 2 3 3 4 3 3 2 2 2 2 2 2 2 1 1 1 0 0 0 0 1 1 1 1
1 2 2 2 2 2 2 2 2 2 3 3 2 2 2 3 3 3 2 2 2 3 3 3 3 2 2 2 1 1 1 1 2 1 1 1 0 0 0 0 0 0 0 0
2 2 2 2 2 2 2 2 2 2 2 3 2 2 2 2 2 2 2 2 3 3 3 2 2 2 2 2 1 1 1 1 2 1 1 1 0 0 0 0 0 0 0 0
Wind_Speed
8 10 10 8 7 4 3 5 4 3 1 5 5 4 4 7 9 9 10 11 11 11 11 11 11 11 10 10 10 10 10 9 7 6 6 6 5 5 5 6 7 7 7 7
9 12 7 4 5 5 7 8 5 4 2 4 4 5 4 6 8 7 9 10 10 10 11 11 11 11 11 11 11 10 10 10 9 7 5 4 4 4 5 5 6 7 8 8
12 4 7 8 9 9 9 8 5 2 3 5 6 7 7 6 6 7 8 9 10 11 11 12 12 11 11 11 11 10 10 10 10 9 6 5 4 4 5 6 6 7 8 9
10 6 9 11 11 10 9 5 4 5 7 4 5 5 6 7 7 8 9 9 9 10 11 11 11 11 11 10 10 9 10 10 9 9 8 8 7 7 6 5 5 7 8 9
10 10 11 12 10 10 3 3 5 6 7 6 6 8 4 6 7 7 7 8 8 9 10 10 10 10 9 9 9 9 9 9 9 9 8 8 8 6 5 5 5 6 6 8
6 7 10 9 7 8 6 6 5 7 8 9 5 7 4 4 3 3 5 6 7 8 9 9 9 8 8 8 8 8 9 9 9 9 9 9 9 8 6 6 6 6 5 6
10 11 9 8 10 10 11 10 8 9 8 6 3 7 2 3 1 1 3 6 7 8 9 9 9 9 8 8 7 7 7 8 8 9 9 9 9 8 8 7 6 5 5 5
14 14 14 12 13 11 14 14 9 7 7 5 6 7 1 3 1 1 3 5 8 9 9 9 9 8 8 8 7 7 7 7 7 8 7 6 7 5 5 6 5 5 4 5
12 10 11 11 10 10 13 13 10 8 6 6 5 4 3 4 4 4 5 7 8 9 9 9 9 8 8 7 7 7 6 6 6 6 5 5 5 5 4 4 5 4 4 4
7 8 11 11 10 7 8 10 7 9 7 8 6 7 4 6 5 5 6 7 8 9 9 9 9 8 8 7 6 6 5 5 5 5 4 4 4 3 2 3 3 3 3 4
9 9 11 12 14 14 10 11 10 9 8 8 6 3 3 2 4 5 6 7 8 9 9 9 8 8 8 7 7 6 6 5 4 4 3 3 2 1 1 1 2 2 2 2
11 8 10 12 6 5 13 13 12 10 8 8 8 2 6 3 4 5 6 8 8 8 9 9 9 9 8 7 7 7 6 6 5 4 4 4 3 2 1 1 1 1 1 1
10 8 10 11 10 9 11 12 13 13 9 9 10 3 7 5 4 5 7 9 9 9 9 9 9 8 8 8 7 7 6 6 5 5 5 5 4 3 2 2 2 2 2 1
9 9 11 11 9 14 14 14 14 14 10 10 11 6 5 6 6 6 8 9 10 10 10 9 9 8 8 8 7 7 7 6 6 6 6 5 5 4 4 3 3 3 2 2
8 10 11 8 4 8 12 14 15 16 14 11 9 9 5 5 6 7 9 10 11 11 11 10 10 9 9 8 8 7 7 7 7 7 6 6 5 5 4 4 4 3 3 3
6 8 10 9 8 9 10 12 13 14 13 12 10 7 1 3 6 8 10 11 11 11 11 11 11 10 9 8 8 8 7 7 7 7 7 6 5 5 4 4 4 4 4 4
8 8 10 11 10 10 13 13 13 12 11 11 10 5 4 5 7 9 10 11 11 11 11 11 10 10 9 8 8 8 7 7 7 7 6 6 5 5 4 4 5 5 4 4
7 8 8 8 9 14 6 4 8 10 9 9 6 2 3 3 5 6 8 9 10 10 11 11 10 10 9 8 8 8 8 8 7 7 6 6 5 5 5 5 5 5 5 5
5 7 8 8 12 10 6 5 8 9 7 5 5 3 4 6 6 6 7 8 9 10 10 10 10 10 9 8 8 9 8 8 8 7 6 6 5 6 5 6 5 5 5 6
7 7 9 9 12 11 6 6 3 7 8 3 4 5 7 8 7 6 8 8 10 10 10 10 10 10 9 9 9 9 9 8 7 7 6 6 6 6 6 5 5 5 5 6
11 9 12 11 11 6 4 4 6 10 2 2 1 4 7 6 2 7 10 9 10 11 11 11 11 9 8 8 9 9 9 8 8 7 7 7 6 6 6 5 5 5 5 6
11 11 11 11 12 6 5 4 4 3 5 3 1 2 4 4 6 10 11 11 11 11 12 11 10 9 8 8 8 9 9 8 8 8 8 7 6 6 6 6 6 6 5 6
6 3 3 4 1 6 2 2 4 3 3 3 2 1 5 6 8 10 10 10 10 10 10 9 10 10 8 7 8 9 9 8 9 9 9 8 7 7 6 6 6 5 4 4
4 1 3 3 2 2 1 1 2 3 3 2 1 2 5 7 9 11 10 10 10 9 9 9 10 10 8 7 8 9 9 9 9 9 8 8 7 8 7 5 5 5 5 4
2 3 4 5 2 2 2 2 3 3 2 1 1 3 5 7 9 10 10 10 9 9 8 8 9 9 9 8 9 9 9 9 10 9 8 8 8 8 8 8 8 7 8 6
5 5 5 3 1 2 1 3 3 2 1 1 2 3 5 7 9 10 10 10 9 9 8 8 9 10 9 9 9 8 8 9 9 9 8 7 6 7 7 9 10 16 13 14
Wind_Direction
191 216 213 205 227 269 227 224 198 140 133 237 234 234 185 182 198 196 189 186 188 189 181 181 187 188 186 188 191 193 197 191 194 199 207 209 213 215 216 218 213 212 216 215
196 218 211 189 200 219 221 223 201 159 161 253 244 238 197 192 203 205 199 192 191 185 179 180 187 191 193 193 193 194 198 194 197 200 207 215 220 225 225 226 213 219 218 221
215 171 174 192 195 210 219 232 221 198 194 214 248 220 195 185 201 202 206 199 192 188 184 183 190 193 193 193 195 197 198 195 199 201 203 204 204 221 218 220 217 219 220 223
220 165 188 202 204 216 212 214 228 219 232 204 243 251 171 186 197 198 198 197 194 189 188 187 188 191 194 195 192 195 195 198 197 200 207 209 217 221 221 220 221 221 223 227
199 188 198 209 207 214 210 167 215 230 243 247 216 262 166 176 209 194 188 191 194 190 187 186 188 189 191 190 189 191 193 198 199 203 206 216 229 231 230 225 228 227 225 230
189 190 212 215 200 200 168 177 191 227 239 238 227 260 235 177 211 187 174 179 185 181 178 176 176 173 176 177 182 186 188 195 198 203 209 218 230 237 238 236 235 225 221 228
196 197 198 203 184 184 203 207 206 211 219 225 168 250 265 71 67 255 183 171 169 170 169 167 170 168 167 172 176 177 183 190 196 201 209 217 227 232 235 240 238 237 230 227
195 196 193 198 207 193 209 221 229 234 227 195 180 240 154 95 116 173 168 157 157 161 163 163 165 165 162 166 169 171 176 182 187 194 203 213 223 229 233 240 249 242 247 245
204 194 175 195 210 221 203 224 244 249 253 248 204 212 196 166 171 161 155 157 156 157 159 160 158 158 157 160 166 170 170 172 177 181 191 203 212 225 235 241 244 248 250 250
213 194 173 175 187 216 243 214 215 237 236 239 218 226 221 180 175 160 160 160 153 154 155 151 150 151 149 150 153 155 156 157 163 170 182 181 191 207 219 245 252 261 267 270
216 203 173 183 201 189 192 205 216 232 243 251 233 200 111 160 158 165 158 156 153 153 150 145 144 142 140 139 141 141 138 138 139 143 146 139 143 151 179 220 255 262 271 272
208 220 195 190 184 239 211 209 206 217 219 245 268 173 106 132 148 152 150 148 146 143 138 136 135 136 137 137 136 134 134 130 125 125 124 119 112 114 129 90 9 360 328 313
186 209 197 187 190 200 218 216 218 228 225 230 246 204 125 154 164 150 150 149 147 144 139 136 137 140 137 133 131 131 131 126 126 125 117 110 104 100 87 68 49 46 45 26
205 215 227 216 199 190 201 207 217 222 226 227 239 254 170 183 183 161 155 155 151 147 144 141 139 136 131 128 129 128 123 123 123 119 116 110 103 96 88 81 68 56 53 50
213 214 224 245 213 203 205 205 208 223 237 245 239 245 241 202 185 162 158 158 155 155 152 148 144 137 134 132 132 127 121 119 120 118 112 106 104 99 93 87 79 69 61 58
216 223 212 216 210 214 218 212 210 221 234 244 251 246 194 155 158 161 163 164 163 161 156 150 145 141 138 137 136 130 126 122 119 114 108 104 103 101 97 92 86 80 72 64
195 211 212 210 197 213 219 214 212 216 225 235 239 230 158 173 175 171 168 170 168 162 156 151 147 142 139 140 137 132 128 126 120 113 108 105 103 96 92 90 85 78 73 71
207 211 218 212 194 222 213 201 222 225 226 235 245 213 176 176 166 166 170 168 163 158 153 150 146 140 137 138 135 129 128 126 119 113 108 106 104 98 89 81 76 78 77 74
217 217 223 217 215 218 186 188 208 215 216 222 229 186 147 133 145 150 153 158 155 151 145 143 142 137 133 133 134 133 129 124 118 110 105 101 102 100 94 85 77 75 78 77
187 223 231 220 229 222 189 155 191 224 213 179 212 185 165 171 198 158 146 146 142 136 136 136 133 130 129 130 133 131 127 121 113 108 102 95 92 93 90 84 83 83 82 82
185 199 221 221 227 221 98 135 189 215 167 55 214 186 183 200 348 117 138 136 134 133 133 131 130 128 127 130 131 129 124 118 115 112 105 97 93 91 91 88 83 86 88 87
202 198 207 220 227 200 95 181 207 31 23 13 348 182 177 143 116 129 134 134 134 133 133 132 129 123 124 130 131 126 120 119 119 113 107 100 95 90 91 91 88 89 92 97
232 267 236 233 225 70 73 24 19 353 342 348 354 162 159 149 139 138 135 132 131 133 132 131 129 125 125 131 132 125 120 123 119 113 106 100 94 87 84 85 87 91 90 92
175 245 248 223 156 89 63 40 19 354 341 333 316 179 166 155 148 143 136 132 131 130 129 131 131 129 125 124 123 122 126 125 120 115 112 109 103 96 86 78 74 69 64 77
224 204 217 218 206 205 143 54 19 6 8 26 131 165 164 152 149 144 138 136 134 128 128 131 129 126 125 125 123 126 130 132 127 123 121 116 108 102 91 75 52 59 55 41
226 234 244 235 142 289 28 7 353 353 15 88 127 137 146 149 146 142 137 134 131 129 130 130 130 130 129 129 125 128 134 136 135 131 130 126 123 118 114 109 90 58 61 59